Location: Caltech
(34.1382°N, 118.1253°W)
Time: 12:52:30
(UTC-08:00)

Oscar 10/S400 - Visible Passes

Search period start: 23 January 2017 00:00
Search period end: 02 February 2017 00:00
Orbit: 4009 x 35438 km, 26.9° (Epoch: 23 January)

Date Brightness Start Highest point End Pass type
(mag) Time Alt. Az. Time Alt. Az. Time Alt. Az.
23 Jan ? 19:05:22 10° SSW 02:06:37 79° SSE 05:40:22 10° SE visible
24 Jan ? 18:22:06 10° SSW 01:51:36 72° ESE 04:54:41 10° ESE visible
25 Jan ? 17:39:31 10° S 01:17:12 64° ESE 04:08:01 10° ESE visible
26 Jan ? 16:57:50 10° S 00:37:02 55° E 03:20:03 10° ESE visible
27 Jan ? 16:17:51 10° SSE 23:54:43 46° E 02:30:15 10° ESE visible
28 Jan ? 15:43:10 10° SE 23:11:33 37° E 01:37:45 10° E visible
29 Jan ? 16:53:17 10° E 22:28:00 29° E 00:40:51 10° E visible
30 Jan ? 18:10:43 10° ENE 21:44:16 20° ENE 23:35:31 10° E visible
31 Jan ? 19:32:59 10° ENE 21:00:20 12° ENE 22:04:25 10° ENE visible
01 Feb ? 03:40:50 10° WNW 04:35:24 12° WNW 05:46:03 10° WNW visible
